TimeCET,TemperatureF,Dew PointF,Humidity,Sea Level PressureIn,VisibilityMPH,Wind Direction,Wind SpeedMPH,Gust SpeedMPH,PrecipitationIn,Events,Conditions,WindDirDegrees,DateUTC
12:15 AM,26.6,26.6,100,29.89,2.5,West,6.7,-,N/A,,Mostly Cloudy,280,2013-02-10 23:15:00
12:45 AM,26.6,26.6,100,29.89,2.5,West,4.5,-,N/A,,Mostly Cloudy,270,2013-02-10 23:45:00
1:15 AM,24.8,24.8,100,29.89,2.5,WSW,2.2,-,N/A,,Mostly Cloudy,240,2013-02-11 00:15:00
1:45 AM,23.0,23.0,100,29.89,2.5,WSW,2.2,-,N/A,,Mostly Cloudy,240,2013-02-11 00:45:00
2:15 AM,24.8,24.8,100,29.89,2.5,SSW,4.5,-,N/A,,Mostly Cloudy,200,2013-02-11 01:15:00
2:45 AM,24.8,24.8,100,29.89,2.5,SSW,4.5,-,N/A,,Mostly Cloudy,200,2013-02-11 01:45:00
3:15 AM,23.0,23.0,100,29.89,2.5,SSW,4.5,-,N/A,,Mostly Cloudy,200,2013-02-11 02:15:00
3:45 AM,24.8,24.8,100,29.89,2.5,SSW,4.5,-,N/A,,Mostly Cloudy,200,2013-02-11 02:45:00
4:15 AM,23.0,23.0,100,29.89,2.5,SSE,4.5,-,N/A,,Mostly Cloudy,160,2013-02-11 03:15:00
4:45 AM,24.8,24.8,100,29.89,2.5,SSE,4.5,-,N/A,,Mostly Cloudy,160,2013-02-11 03:45:00
5:15 AM,24.8,23.0,93,29.86,2.5,SSE,4.5,-,N/A,,Mostly Cloudy,160,2013-02-11 04:15:00
5:45 AM,-9999,-9999,N/A,-9999,5.0,SSE,13.4,-,N/A,,Mostly Cloudy,160,2013-02-11 04:45:00
5:51 AM,24.8,23.0,93,29.86,3.1,SE,4.5,-,N/A,,Mostly Cloudy,130,2013-02-11 04:51:00
6:15 AM,24.8,23.0,93,29.86,3.7,SE,2.2,-,N/A,,Mostly Cloudy,140,2013-02-11 05:15:00
6:45 AM,26.6,23.0,86,29.86,5.0,SE,4.5,-,N/A,,Mostly Cloudy,140,2013-02-11 05:45:00
7:15 AM,24.8,23.0,93,29.86,5.0,SE,6.7,-,N/A,,Mostly Cloudy,140,2013-02-11 06:15:00
7:45 AM,24.8,23.0,93,29.86,5.0,SE,6.7,-,N/A,,Scattered Clouds,140,2013-02-11 06:45:00
8:15 AM,24.8,21.2,86,29.86,5.0,SE,6.7,-,N/A,,Partly Cloudy,140,2013-02-11 07:15:00
8:45 AM,-9999,-9999,N/A,-9999,5.0,SSE,11.2,-,N/A,,Scattered Clouds,160,2013-02-11 07:45:00
9:15 AM,28.4,21.2,74,29.86,6.2,SSE,8.9,-,N/A,,Scattered Clouds,150,2013-02-11 08:15:00
10:15 AM,30.2,21.2,69,29.86,-9999.0,SE,17.9,-,N/A,,Clear,140,2013-02-11 09:15:00
10:45 AM,30.2,21.2,69,29.86,-9999.0,SE,17.9,-,N/A,,Clear,140,2013-02-11 09:45:00
11:15 AM,32.0,19.4,60,29.86,-9999.0,SSE,17.9,-,N/A,,Clear,150,2013-02-11 10:15:00
11:45 AM,-9999,-9999,N/A,-9999,-9999.0,SSE,11.2,-,N/A,,Clear,160,2013-02-11 10:45:00
12:15 PM,33.8,17.6,52,29.86,-9999.0,SSE,17.9,-,N/A,,Clear,160,2013-02-11 11:15:00
12:45 PM,33.8,19.4,56,29.83,-9999.0,SSE,15.7,-,N/A,,Clear,160,2013-02-11 11:45:00
1:15 PM,33.8,19.4,56,29.83,-9999.0,SSE,13.4,-,N/A,,Clear,150,2013-02-11 12:15:00
1:45 PM,33.8,19.4,56,29.83,-9999.0,SSE,15.7,-,N/A,,Clear,150,2013-02-11 12:45:00
2:15 PM,33.8,19.4,56,29.83,-9999.0,SE,13.4,-,N/A,,Clear,140,2013-02-11 13:15:00
2:45 PM,-9999,-9999,N/A,-9999,6.2,SSE,11.2,-,N/A,,Overcast,160,2013-02-11 13:45:00
3:15 PM,33.8,21.2,60,29.80,-9999.0,SE,15.7,-,N/A,,Clear,130,2013-02-11 14:15:00
3:45 PM,33.8,23.0,65,29.80,-9999.0,SE,15.7,-,N/A,,Clear,130,2013-02-11 14:45:00
4:15 PM,33.8,21.2,60,29.80,-9999.0,SE,15.7,-,N/A,,Clear,140,2013-02-11 15:15:00
4:45 PM,32.0,21.2,64,29.83,-9999.0,SE,15.7,-,N/A,,Clear,140,2013-02-11 15:45:00
5:15 PM,32.0,23.0,69,29.80,-9999.0,SE,11.2,-,N/A,,Clear,130,2013-02-11 16:15:00
5:45 PM,-9999,-9999,N/A,-9999,6.2,ESE,11.2,-,N/A,,Overcast,120,2013-02-11 16:45:00
6:15 PM,32.0,23.0,69,29.83,-9999.0,SE,11.2,22.4,N/A,,Clear,130,2013-02-11 17:15:00
6:45 PM,32.0,24.8,75,29.83,-9999.0,SE,11.2,22.4,N/A,,Clear,130,2013-02-11 17:45:00
7:15 PM,30.2,24.8,80,29.83,-9999.0,SE,13.4,-,N/A,,Clear,130,2013-02-11 18:15:00
7:45 PM,30.2,23.0,75,29.83,6.2,SE,15.7,-,N/A,,Mostly Cloudy,140,2013-02-11 18:45:00
8:15 PM,32.0,24.8,75,29.83,5.0,ESE,11.2,-,N/A,,Overcast,120,2013-02-11 19:15:00
8:25 PM,30.2,23.0,75,29.83,5.0,ESE,11.2,-,N/A,Snow,Light Snow,110,2013-02-11 19:25:00
8:45 PM,-9999,-9999,N/A,-9999,6.2,ESE,11.2,-,N/A,,Overcast,120,2013-02-11 19:45:00
9:15 PM,30.2,23.0,75,29.83,5.0,East,11.2,-,N/A,Snow,Light Snow,100,2013-02-11 20:15:00
9:45 PM,30.2,23.0,75,29.83,5.0,East,13.4,-,N/A,Snow,Light Snow,100,2013-02-11 20:45:00
10:15 PM,28.4,23.0,80,29.83,5.0,East,8.9,-,N/A,Snow,Light Snow,100,2013-02-11 21:15:00
10:45 PM,30.2,23.0,75,29.83,5.0,East,11.2,-,N/A,,Overcast,90,2013-02-11 21:45:00
11:45 PM,-9999,-9999,N/A,-9999,6.2,North,-9999.0,-,N/A,,Overcast,0,2013-02-11 22:45:00